Location: Tauranga
(37.6860°S, 176.1670°E)
Time: 02:17:55
(UTC+13:00)

Cosmos 1763 Rocket - Visible Passes

Search period start: 18 November 2019 00:00
Search period end: 28 November 2019 00:00
Orbit: 733 x 779 km, 74.0° (Epoch: 16 November)

Date Brightness Start Highest point End Pass type
(mag) Time Alt. Az. Time Alt. Az. Time Alt. Az.
18 Nov 3.4 03:31:52 54° N 03:33:03 81° ENE 03:38:20 10° SSE visible
18 Nov 5.5 05:13:26 10° W 05:15:33 12° SW 05:17:42 10° SSW visible
19 Nov 4.2 02:52:15 41° ENE 02:52:40 42° ENE 02:57:37 10° SSE visible
19 Nov 5.0 04:32:17 16° W 04:34:40 22° WSW 04:38:44 10° S visible
20 Nov 5.3 02:12:36 22° E 02:12:36 22° E 02:16:24 10° SE visible
20 Nov 4.2 03:52:38 34° W 03:53:56 39° WSW 03:58:53 10° S visible
21 Nov 6.0 01:32:56 11° E 01:32:56 11° E 01:33:39 10° ESE visible
21 Nov 3.3 03:12:57 70° WNW 03:13:21 75° WSW 03:18:39 10° SSE visible
22 Nov 3.9 02:33:14 56° E 02:33:14 56° E 02:38:06 10° SSE visible
22 Nov 5.3 04:13:15 14° W 04:15:09 17° WSW 04:18:32 10° SSW visible
23 Nov 5.0 01:53:30 28° E 01:53:30 28° E 01:57:09 10° SE visible
23 Nov 4.6 03:33:31 28° W 03:34:20 30° WSW 03:38:58 10° S visible
24 Nov 5.8 01:13:43 14° ESE 01:13:43 14° ESE 01:15:29 10° ESE visible
24 Nov 3.8 02:53:44 55° WSW 02:53:44 55° WSW 02:58:54 10° S visible
25 Nov 3.8 02:13:56 64° SE 02:13:56 64° SE 02:18:30 10° SSE visible
25 Nov 5.6 03:53:57 11° WSW 03:55:40 13° SW 03:58:00 10° SSW visible
26 Nov 4.7 01:34:07 35° ESE 01:34:07 35° ESE 01:37:46 10° SSE visible
26 Nov 5.0 03:14:07 22° WSW 03:14:47 23° WSW 03:18:56 10° S visible
27 Nov 5.5 00:54:16 19° ESE 00:54:16 19° ESE 00:56:32 10° SE visible
27 Nov 4.3 02:34:16 40° WSW 02:34:16 40° WSW 02:39:04 10° S visible
